Regional Weather Roundup
Issued by NWS

Home | Current Version | Previous Version | Text Only | Print | Product List | Glossary Off
Versions: 1 2 3 4 5 6 7 8 9 10 11 12 13 14 15 16 17 18 19 20 21 22 23 24 25 26 27 28 29 30 31 32 33 34 35 36 37 38 39 40 41 42 43 44 45 46 47 48 49 50

000
ASUS43 KDMX 010507
RWRIA

WEATHER ROUNDUP FOR IOWA
NATIONAL WEATHER SERVICE DES MOINES IA
1100 PM CST SAT FEB 28 2015

NOTE: "FAIR" INDICATES FEW OR NO CLOUDS BELOW 12,000 FEET WITH NO
SIGNIFICANT WEATHER AND/OR OBSTRUCTIONS TO VISIBILITY.

* - THESE STATIONS ARE NOT NWS STATIONS...THUS NOT UNDER NWS
QUALITY CONTROL.  THEY ALSO DO NOT REPORT WEATHER SUCH
AS PRECIPITATION OR FOG.

IAZ001>003-012>014-020>022-031>034-043>046-010600-
   NORTHWEST IOWA

CITY           SKY/WX    TMP DP  RH WIND       PRES   REMARKS
CARROLL *      CLOUDY    19  16  86 S6        30.34S WCI  11
CHEROKEE *     CLEAR     16  14  93 S8        30.31S WCI   5
DENISON *      CLOUDY    19  19 100 S9        30.31F WCI   9
LE MARS *      CLEAR     16  14  93 S8        30.29F WCI   5
ORANGE CITY *  CLEAR     16  12  86 S5        30.27S WCI   9
SHELDON *      CLEAR     14  12  92 S12       30.26S WCI   0
SIOUX CITY     CLEAR     14  11  87 SE6       30.31F WCI   5
SPENCER        CLEAR     12   8  84 S10       30.29S WCI  -1
STORM LAKE *   CLEAR     14  10  85 S12       30.30S WCI   0
$$

IAZ055>058-069>071-079>083-090>094-010600-
   SOUTHWEST IOWA

CITY           SKY/WX    TMP DP  RH WIND       PRES   REMARKS
ATLANTIC *     CLOUDY    21  18  86 SW9       30.35F WCI  11
AUDUBON *      LGT SNOW  19  16  86 S5        30.34F WCI  13
CLARINDA *     CLOUDY    21  19  93 S5        30.39F WCI  15
COUNCIL BLFS * CLOUDY    21  19  93 S6        30.33F WCI  14
CRESTON *      CLOUDY    21  19  93 S7        30.36F WCI  13
HARLAN  *      CLOUDY    21  21 100 S9        30.37F WCI  11
LAMONI         CLOUDY    18  16  92 CALM      30.37F
RED OAK *      CLOUDY    21  18  86 S3        30.37F
SHENANDOAH *   CLOUDY    23  18  80 S6        30.38F WCI  16
$$

IAZ047>049-059>061-072>074-084-010600-
   CENTRAL IOWA

CITY           SKY/WX    TMP DP  RH WIND       PRES   REMARKS
AMES           CLOUDY    18  14  84 SE9       30.38F WCI   7
ANKENY *       CLOUDY    19  18  93 S6        30.39F WCI  11
CHARITON *     CLOUDY    18  16  93 SE6       30.39S WCI   9
DES MOINES     FLURRIES  21  17  84 SE7       30.38F WCI  12
GRINNELL*      FLURRIES  12  10  92 SE3       30.41S
KNOXVILLE *    CLOUDY    18  12  79 SE8       30.39F WCI   7
MARSHALLTOWN   CLOUDY    14  11  87 SE13      30.39S WCI   0
PELLA *        CLOUDY    15  15 100 SE6       30.42F WCI   6
PERRY *        FLURRIES  21  19  93 S6        30.36F WCI  14
$$

IAZ004>006-015-016-023>025-035-036-010600-
   NORTH CENTRAL IOWA

CITY           SKY/WX    TMP DP  RH WIND       PRES   REMARKS
ALGONA *       CLOUDY    14  12  92 S13       30.33F WCI   0
CLARION *      FLURRIES  14  14 100 SE10      30.35S WCI   1
ESTHERVILLE    CLEAR     12   9  87 S12       30.28F WCI  -2
FORT DODGE *   CLOUDY    18  12  79 S7        30.35F WCI   8
MASON CITY     CLOUDY    11   8  88 S10       30.36F FOG     WCI  -3
FOREST CITY *  FLURRIES  12   9  85 S10       30.34F WCI  -1
IOWA FALLS *   LGT SNOW  14  12  92 SE9       30.38S WCI   2
$$

IAZ007>011-017>019-026>030-037>042-050>054-066-010600-
   NORTHEAST IOWA

CITY           SKY/WX    TMP DP  RH WIND       PRES   REMARKS
CEDAR RAPIDS   MOCLDY     8   6  92 SE3       30.41S FOG
CHARLES CITY * CLOUDY     9   5  85 S8        30.39S WCI  -4
CLINTON *      MOCLDY     7   1  78 E7        30.46F WCI  -5
DECORAH *      CLOUDY     7  -2  66 S5        30.38F WCI  -2
DUBUQUE        MOCLDY     7   4  87 CALM      30.41F
MONTICELLO *   CLOUDY     3   0  85 CALM      30.44R
OELWEIN *      CLOUDY     3   0  85 SE8       30.40F WCI -10
WATERLOO       MOCLDY     2   0  91 E3        30.41F FOG
$$

IAZ064-065-067-068-078-010600-
   EAST CENTRAL IOWA

CITY           SKY/WX    TMP DP  RH WIND       PRES   REMARKS
DAVENPORT      MOCLDY    11   7  84 SE8       30.43F FOG     WCI  -1
IOWA CITY      CLOUDY    12   9  87 CALM      30.45F
MT. PLEASANT * LGT SNOW  10   9  92 E5        30.43F WCI   2
MUSCATINE *    FOG        7   5  92 CALM      30.46S VSB 0
QUAD CITIES    MOCLDY     9   6  88 E6        30.44F FOG     WCI  -1
$$

IAZ062-063-075>077-085>089-095>099-010600-
   SOUTHEAST IOWA

CITY           SKY/WX    TMP DP  RH WIND       PRES   REMARKS
BURLINGTON     CLOUDY    19  17  92 SE6       30.42F FOG     WCI  11
FAIRFIELD *    CLEAR      9   3  78 SE5       30.42F HAZE    WCI   0
FORT MADISON * LGT SNOW  18  18 100 SE5       30.43F WCI  11
KEOKUK *       LGT SNOW  19  19 100 SE3       30.42F
OSKALOOSA *      N/A     10   7  85 SE5       30.42F FOG     WCI   2
CENTERVILLE *  CLEAR     14  14 100 CALM      30.40F
OTTUMWA        MOCLDY    13  10  88 E3        30.41F
WASHINGTON *   PTCLDY    10  10 100 CALM      30.43S FOG
$$

ABBREVIATIONS USED IN REMARKS
   TC - TEMPERATURES IN CELSIUS
  WCI - WIND CHILL INDEX
   HX - HEAT INDEX
  VSB - VISIBILITY
$$



USA.gov is the U.S. government's official web portal to all federal, state and local government web resources and services.